Terug naar catalogus

THORAD AGENA D DEB

ActiefSSO
NORAD 4914·DEBRIS·🇺🇸 United States

Gelanceerd Apr 8, 1970 vanaf Vandenberg Space Force Base

Loading…

Volgende Passages

TLE

Source: Space-Track
1  4914U 70025FL  26221.79860015  .00002580  00000-0  28815-2 0  9992
2  4914  99.4409 166.9149 0081225  70.1259 356.5694 13.70736496782127

Volg THORAD AGENA D DEB in realtime met AllMySat

Download on the App Store